Winchester, VA

2:32 PM EST on January 17, 2018 (GMT -0500)
Winchester Regional

Weather History for KOKV - February, 2014

Change the Weather History Date:

Thursday, February 27, 2014

  Actual Average Record
Temperature  
Mean Temperature 24 °F -  
Max Temperature 33 °F 47 °F 78 °F (1997)
Min Temperature 14 °F 29 °F 10 °F (1990)
Degree Days  
Heating Degree Days 42    
Moisture  
Dew Point 6 °F    
Average Humidity 49    
Maximum Humidity 79    
Minimum Humidity 27    
Precipitation  
Precipitation 0.00 in - - ()
Sea Level Pressure  
Sea Level Pressure 29.80 in    
Wind  
Wind Speed 8 mph (WNW)    
Max Wind Speed 32 mph    
Max Gust Speed 43 mph    
Visibility 10 miles    
Events      
Averages and records for this station are not official NWS values.
T = Trace of Precipitation, MM = Missing Value Source: NWS Daily Summary

Daily Weather History Graph

Daily Weather History Graph

Search for Another Location

Airport or City:

Trip Planner

Search our weather history database for the weather conditions in past years. The results will help you decide how hot, cold, wet, or windy it might be!

Date:

Astronomy

Feb. 27, 2014 Rise Set
Actual Time 6:48 AM EST 6:02 PM EST
Civil Twilight 6:21 AM EST 6:29 PM EST
Nautical Twilight 5:50 AM EST 7:00 PM EST
Astronomical Twilight 5:19 AM EST 7:31 PM EST
Moon 5:18 AM EST (2/27) 4:26 PM EST (2/27)
Length of Visible Light 12h 08m
Length of Day
11h 14m
Waning Crescent, 4% of the Moon is Illuminated
Feb 27
Waning Crescent
Mar 1
New
Mar 8
First Quarter
Mar 16
Full
Mar 23
Last Quarter

Hourly Weather History & Observations

Time (EST) Temp. Windchill Dew Point Humidity Pressure Visibility Wind Dir Wind Speed Gust Speed Precip Events Conditions
12:15 AM 17.6 °F - 8.6 °F 68% 29.84 in 10.0 mi Calm Calm - N/A   Clear
12:35 AM 17.6 °F - 8.6 °F 68% 29.84 in 10.0 mi Calm Calm - N/A   Clear
12:55 AM 17.6 °F - 8.6 °F 68% 29.83 in 10.0 mi Calm Calm - N/A   Clear
1:15 AM 15.8 °F 10.2 °F 8.6 °F 73% 29.81 in 10.0 mi SE 3.5 mph - N/A   Clear
1:35 AM 17.6 °F - 8.6 °F 68% 29.81 in 10.0 mi Calm Calm - N/A   Clear
1:55 AM 15.8 °F - 8.6 °F 73% 29.80 in 10.0 mi Calm Calm - N/A   Clear
2:15 AM 17.6 °F - 8.6 °F 68% 29.79 in 10.0 mi Calm Calm - N/A   Clear
2:35 AM 14.0 °F - 8.6 °F 79% 29.77 in 10.0 mi Calm Calm - N/A   Clear
2:55 AM 14.0 °F - 8.6 °F 79% 29.76 in 10.0 mi Calm Calm - N/A   Clear
3:15 AM 15.8 °F - 8.6 °F 73% 29.75 in 10.0 mi Calm Calm - N/A   Clear
3:35 AM 17.6 °F 12.3 °F 8.6 °F 68% 29.74 in 10.0 mi SW 3.5 mph - N/A   Clear
3:55 AM 17.6 °F - 8.6 °F 68% 29.73 in 10.0 mi Calm Calm - N/A   Clear
4:15 AM 19.4 °F 14.3 °F 8.6 °F 63% 29.73 in 10.0 mi West 3.5 mph - N/A   Clear
4:35 AM 17.6 °F - 8.6 °F 68% 29.73 in 10.0 mi Calm Calm - N/A   Clear
4:55 AM 17.6 °F 12.3 °F 8.6 °F 68% 29.72 in 10.0 mi SW 3.5 mph - N/A   Clear
5:15 AM 14.0 °F 6.5 °F 8.6 °F 79% 29.71 in 10.0 mi South 4.6 mph - N/A   Clear
5:35 AM 17.6 °F 12.3 °F 8.6 °F 68% 29.71 in 10.0 mi South 3.5 mph - N/A   Clear
5:55 AM 17.6 °F 12.3 °F 8.6 °F 68% 29.70 in 10.0 mi SSW 3.5 mph - N/A   Clear
6:15 AM 17.6 °F 10.7 °F 8.6 °F 68% 29.70 in 10.0 mi SW 4.6 mph - N/A   Clear
6:35 AM 19.4 °F 14.3 °F 8.6 °F 63% 29.70 in 10.0 mi SW 3.5 mph - N/A   Clear
6:55 AM 19.4 °F 14.3 °F 8.6 °F 63% 29.70 in 10.0 mi WSW 3.5 mph - N/A   Clear
7:15 AM 19.4 °F 11.5 °F 10.4 °F 68% 29.70 in 10.0 mi WSW 5.8 mph - N/A   Clear
7:35 AM 21.2 °F 13.6 °F 10.4 °F 63% 29.69 in 10.0 mi WSW 5.8 mph - N/A   Clear
7:55 AM 23.0 °F 15.8 °F 10.4 °F 59% 29.69 in 10.0 mi WSW 5.8 mph - N/A   Clear
8:15 AM 24.8 °F 16.9 °F 10.4 °F 54% 29.69 in 10.0 mi WSW 6.9 mph - N/A   Clear
8:40 AM 26.6 °F 17.5 °F 12.2 °F 55% 29.69 in 10.0 mi SW 9.2 mph - N/A   Clear
8:55 AM 28.4 °F 21.2 °F 12.2 °F 51% 29.68 in 10.0 mi WSW 6.9 mph - N/A   Clear
9:15 AM 28.4 °F 22.2 °F 10.4 °F 47% 29.69 in 10.0 mi SW 5.8 mph - N/A   Clear
9:35 AM 30.2 °F 19.8 °F -0.4 °F 27% 29.68 in 10.0 mi West 13.8 mph 18.4 mph N/A   Clear
9:55 AM 30.2 °F 20.2 °F 1.4 °F 29% 29.68 in 10.0 mi West 12.7 mph 19.6 mph N/A   Clear
10:15 AM 30.2 °F 20.2 °F 1.4 °F 29% 29.68 in 10.0 mi West 12.7 mph 19.6 mph N/A   Clear
10:35 AM 32.0 °F 24.2 °F 1.4 °F 27% 29.68 in 10.0 mi West 9.2 mph - N/A   Clear
10:55 AM 32.0 °F 23.6 °F 1.4 °F 27% 29.68 in 10.0 mi West 10.4 mph 21.9 mph N/A   Clear
11:15 AM 32.0 °F 20.5 °F 5.0 °F 32% 29.67 in 10.0 mi WNW 18.4 mph 26.5 mph N/A   Clear
11:35 AM 33.8 °F 21.6 °F 5.0 °F 30% 29.68 in 10.0 mi West 23.0 mph 42.6 mph N/A   Clear
11:55 AM 32.0 °F 17.4 °F 3.2 °F 30% 29.68 in 10.0 mi West 31.1 mph 36.8 mph N/A   Clear
12:15 PM 32.0 °F 17.2 °F 3.2 °F 30% 29.68 in 10.0 mi West 32.2 mph 41.4 mph N/A   Clear
12:35 PM 33.8 °F 21.0 °F 3.2 °F 28% 29.69 in 10.0 mi West 25.3 mph 36.8 mph N/A   Clear
12:55 PM 33.8 °F 21.9 °F 5.0 °F 30% 29.69 in 10.0 mi West 21.9 mph 28.8 mph N/A   Clear
1:20 PM 33.8 °F 21.9 °F 6.8 °F 32% 29.70 in 10.0 mi WNW 21.9 mph 31.1 mph N/A   Clear
1:35 PM 33.8 °F 22.5 °F 5.0 °F 30% 29.70 in 10.0 mi West 19.6 mph 27.6 mph N/A   Clear
1:55 PM 33.8 °F 22.5 °F 6.8 °F 32% 29.70 in 10.0 mi WNW 19.6 mph 25.3 mph N/A   Clear
2:15 PM 33.8 °F 21.0 °F 6.8 °F 32% 29.71 in 10.0 mi NW 25.3 mph 29.9 mph N/A   Clear
2:35 PM 33.8 °F 21.6 °F 8.6 °F 35% 29.72 in 10.0 mi NW 23.0 mph 29.9 mph N/A   Clear
2:55 PM 32.0 °F 18.6 °F 5.0 °F 32% 29.72 in 10.0 mi WNW 25.3 mph 34.5 mph N/A   Clear
3:15 PM 32.0 °F 19.2 °F 6.8 °F 35% 29.74 in 10.0 mi NW 23.0 mph 34.5 mph N/A   Clear
3:35 PM 32.0 °F 18.6 °F 5.0 °F 32% 29.74 in 10.0 mi WNW 25.3 mph 31.1 mph N/A   Clear
3:55 PM 32.0 °F 18.6 °F 5.0 °F 32% 29.75 in 10.0 mi WNW 25.3 mph 35.7 mph N/A   Clear
4:15 PM 32.0 °F 18.4 °F 5.0 °F 32% 29.76 in 10.0 mi WNW 26.5 mph 34.5 mph N/A   Clear
4:35 PM 32.0 °F 18.9 °F 5.0 °F 32% 29.77 in 10.0 mi West 24.2 mph 31.1 mph N/A   Clear
4:55 PM 32.0 °F 19.2 °F 5.0 °F 32% 29.79 in 10.0 mi WNW 23.0 mph 32.2 mph N/A   Clear
5:15 PM 32.0 °F 20.1 °F 5.0 °F 32% 29.81 in 10.0 mi WNW 19.6 mph 28.8 mph N/A   Clear
5:35 PM 30.2 °F 16.8 °F 3.2 °F 32% 29.83 in 10.0 mi WNW 23.0 mph 38.0 mph N/A   Clear
5:55 PM 30.2 °F 19.3 °F 3.2 °F 32% 29.85 in 10.0 mi WNW 15.0 mph 28.8 mph N/A   Clear
6:15 PM 28.4 °F 17.5 °F 8.6 °F 43% 29.87 in 10.0 mi NW 13.8 mph 23.0 mph N/A   Clear
6:35 PM 28.4 °F 17.5 °F 8.6 °F 43% 29.89 in 10.0 mi NW 13.8 mph 23.0 mph N/A   Clear
6:55 PM 26.6 °F 15.7 °F 8.6 °F 47% 29.92 in 10.0 mi NW 12.7 mph 19.6 mph N/A   Scattered Clouds
7:15 PM 26.6 °F 13.1 °F 6.8 °F 43% 29.93 in 10.0 mi NW 19.6 mph 23.0 mph N/A   Scattered Clouds
7:35 PM 26.6 °F 17.5 °F 5.0 °F 40% 29.95 in 10.0 mi NNW 9.2 mph 16.1 mph N/A   Scattered Clouds
7:55 PM 26.6 °F 13.8 °F 5.0 °F 40% 29.95 in 10.0 mi NW 17.3 mph 23.0 mph N/A   Clear
8:15 PM 23.0 °F 10.6 °F 3.2 °F 43% 29.98 in 10.0 mi NNW 13.8 mph 20.7 mph N/A   Clear
8:35 PM 23.0 °F 11.1 °F 5.0 °F 46% 30.00 in 10.0 mi NNW 12.7 mph 17.3 mph N/A   Clear
8:55 PM 21.2 °F 7.8 °F 5.0 °F 50% 30.01 in 10.0 mi NNW 15.0 mph 21.9 mph N/A   Clear
9:15 PM 21.2 °F 7.3 °F 5.0 °F 50% 30.03 in 10.0 mi NNW 16.1 mph 23.0 mph N/A   Clear
9:35 PM 19.4 °F 6.0 °F 3.2 °F 49% 30.05 in 10.0 mi NW 13.8 mph 23.0 mph N/A   Clear
9:55 PM 19.4 °F 7.9 °F 3.2 °F 49% 30.07 in 10.0 mi NNW 10.4 mph 18.4 mph N/A   Clear
10:15 PM 17.6 °F 3.2 °F 3.2 °F 53% 30.08 in 10.0 mi NW 15.0 mph 21.9 mph N/A   Clear
10:35 PM 17.6 °F 3.2 °F 3.2 °F 53% 30.09 in 10.0 mi NW 15.0 mph 24.2 mph N/A   Clear
10:55 PM 17.6 °F 9.3 °F 3.2 °F 53% 30.11 in 10.0 mi NNW 5.8 mph 16.1 mph N/A   Clear
11:15 PM 17.6 °F 12.3 °F 3.2 °F 53% 30.12 in 10.0 mi North 3.5 mph - N/A   Clear
11:35 PM 17.6 °F 5.7 °F 3.2 °F 53% 30.13 in 10.0 mi NNW 10.4 mph - N/A   Clear
11:55 PM 15.8 °F 6.1 °F 1.4 °F 53% 30.13 in 10.0 mi NNW 6.9 mph - N/A   Clear